SKYNET 5B

Last updated on Mon Dec 08 2025 00:02:47 GMT+0000 (Coordinated Universal Time)

1 32294U 07056B 25340.94961481 .00000143 00000+0 00000+0 0 9990 2 32294 4.7620 75.8146 0003748 180.8184 186.2888 1.00269907 66270
UTC large
Height (km)
Speed (km/s)
/
Latitude / Longitude
Inclination (degrees)
Orbital Period (minutes)
Azimuth
Elevation
Range (km)
Doppler Factor

Next 0 passes for location: London (51.5072 / 0.1276)

Sorry there are no passes over London.